CZ-6A DEB, 61314

Orbit data source: Space-Track

CZ-6A DEB, 61314 is space debris in LEO originally from a launch on Tue, 06 Aug 2024 UTC launched from the Taiyaun Space Center, China (TSC). Debris objects in space refer to the collection of defunct objects orbiting the Earth. Examples of debris include non-operational satellites, rocket bodies, and fragments generated from explosions, collisions, or faulty payload assembly.

Loading next visibility...
Identifier
61314, 2024-140UB
Orbit
LEO
Country
Flag of CNCN / PRC
Related business
Manufacturer
SAST
Mission
Spacecraft
Bus & Motor
Unknown
Mass
Unknown
Launch date (UTC)
2024-08-06 (2 years ago)
Launch vehicle
Unknown
Launch site
Taiyaun Space Center, China (TSC)
Object type
Payload
Rocket body
Debris
Shape & HBR
Unknown shape, 0.1 m
Radar Cross Section
Medium (>0.1 m² and <1 m²)

Expand to show TLE details & history
Last TLE update: 18 hours ago

TLE from 18 hours ago
0 CZ-6A DEB
1 61314U 24140UB  26171.24016587  .00004726  00000-0  85759-3 0  9992
2 61314  88.9303 263.5921 0101035 246.0078 113.0534 14.62802421 96331
Epoch: 2026-06-20T05:45Z
TLE epoch observation values (Epoch: 2026-06-20T05:45:50.331Z)
Latitude
0.00005°
Longitude
-91.32524°
Altitude
715.808 km
Speed
7.482 km/s
True Right ascension
17h 34m 22s
True Declination
0° 00' 00"
Sunlit
Object was in full shadow at epoch
Visualization orbit readout
Latitude
Unknown
Longitude
Unknown
Altitude
Unknown
Speed
Unknown
Apparent Right ascension
Unknown
Apparent Declination
Unknown
Sunlit
N/A
Visualization observer readout
Local Sidereal Time
10:18:01
Azimuth
Unknown
Elevation
Unknown
Doppler factor
Unknown
Orbital elements
Apogee altitude
752.352 km
Perigee altitude
609.707 km
Semi-major axis
7,059.167 km
Eccentricity
0.0101
Inclination
88.9303°
RAAN
263.5921°
Arg. of periapsis
246.0078°
True anomaly
114.11341°
Mean anomaly
113.0534°
Eccentric anomaly
113.58394°
Mean motion
3.65943 °/min
Orbital period
98.38 mins
BSTAR
0.00085759
Loading maneuver chart data...
Computing Atmospheric mass density...
Loading historical data...
Loading historical data...
Loading historical data...
Loading historical data...
Loading historical data...
Loading historical data...
Loading historical data...

Documentation

Showing up to 5 results
|